This is the latest recevied weather packets stored in our database for station/object OE2ATN. If no packets are shown the sender has not sent any weather packets the latest 10 day(s).
| Time | Temp. | Humidity | Pressure | Rain* | Wind** | Luminosity | Snow |
|---|---|---|---|---|---|---|---|
| 1777623551 | 9.44° C | 52% | 1034.9 hPa | 0 mm | - | - | - |
| 1777623250 | 9.44° C | 50% | 1035 hPa | 0 mm | - | - | - |
| 1777622950 | 8.89° C | 51% | 1034.9 hPa | 0 mm | - | - | - |
| 1777622650 | 8.89° C | 53% | 1035 hPa | 0 mm | - | - | - |
| 1777622350 | 8.33° C | 57% | 1035.1 hPa | 0 mm | - | - | - |
| 1777622050 | 8.33° C | 56% | 1035.1 hPa | 0 mm | - | - | - |
| 1777621750 | 7.78° C | 57% | 1035.2 hPa | 0 mm | - | - | - |
| 1777621450 | 7.78° C | 58% | 1035.2 hPa | 0 mm | - | - | - |
| 1777621149 | 7.78° C | 62% | 1035.2 hPa | 0 mm | - | - | - |
| 1777620849 | 7.22° C | 63% | 1035.3 hPa | 0 mm | - | - | - |
| 1777620550 | 6.67° C | 62% | 1035.3 hPa | 0 mm | - | - | - |
| 1777620249 | 6.67° C | 64% | 1035.3 hPa | 0 mm | - | - | - |
| 1777619949 | 6.11° C | 65% | 1035.3 hPa | 0 mm | - | - | - |
| 1777619649 | 6.11° C | 64% | 1035.4 hPa | 0 mm | - | - | - |
| 1777619348 | 5.56° C | 65% | 1035.5 hPa | 0 mm | - | - | - |
| 1777619049 | 5.56° C | 65% | 1035.5 hPa | 0 mm | - | - | - |
| 1777618749 | 5.56° C | 66% | 1035.5 hPa | 0 mm | - | - | - |
| 1777618449 | 5° C | 66% | 1035.7 hPa | 0 mm | - | - | - |
| 1777618149 | 5° C | 66% | 1035.6 hPa | 0 mm | - | - | - |
| 1777617848 | 5° C | 69% | 1035.6 hPa | 0 mm | - | - | - |
| 1777617548 | 4.44° C | 68% | 1035.6 hPa | 0 mm | - | - | - |
| 1777617248 | 4.44° C | 67% | 1035.6 hPa | 0 mm | - | - | - |
| 1777616948 | 4.44° C | 68% | 1035.6 hPa | 0 mm | - | - | - |
| 1777616648 | 4.44° C | 71% | 1035.6 hPa | 0 mm | - | - | - |
| 1777616348 | 3.89° C | 71% | 1035.7 hPa | 0 mm | - | - | - |
* Rain latest hour (hover to see other rain measurements)
** Current wind speed in m/s (hover to see current wind gust speed)